Location: Newark
(40.3500°N, 15.2333°E)
Time: 17:59:00
(UTC+00:00)

Altair - Pass Details

Date: 18 January 2020
Orbit: 1502 x 1682 km, 47.2° (Epoch: 25 February)

Event Time Altitude Azimuth Distance (km) Brightness Sun altitude
Rises 10:42:58 0° 255° (WSW) 4,918 10.2 28.7°
Reaches altitude 10° 10:46:10 10° 258° (WSW) 3,938 9.8 28.8°
Maximum altitude 10:56:19 70° 342° (NNW) 1,770 8.1 29.0°
Drops below altitude 10° 11:06:23 10° 66° (ENE) 3,901 9.5 29.0°
Sets 11:09:32 0° 69° (ENE) 4,870 9.9 29.1°
